Temperature
14 14 14 14 15 15 15 15 15 14 14 14 14 14 13 13 12 13 13 12 12 12 12 12 12 11 12 12 12 12 12 12 12 12 11 11 11 11 11 11 11 11 11
14 14 14 14 14 14 14 14 14 14 13 14 14 14 13 13 12 12 12 12 12 12 12 11 11 11 11 11 12 11 11 11 11 11 11 11 11 11 11 10 10 10 10
14 14 14 14 14 13 13 13 13 13 13 13 13 13 13 12 12 12 12 12 12 12 12 11 11 11 11 11 11 11 11 11 11 11 11 11 11 10 10 10 10 9 9
14 14 14 14 14 13 13 13 13 13 13 13 13 13 13 12 12 11 11 12 12 12 12 12 11 11 11 11 11 11 11 11 11 11 11 11 10 10 10 9 9 8 8
15 14 14 14 13 13 13 13 12 13 13 13 13 13 12 12 12 11 11 11 12 12 12 12 11 11 11 10 10 10 10 10 10 10 10 10 10 10 9 8 8 7 7
15 14 14 14 13 13 13 12 12 12 12 12 12 12 12 12 12 11 11 11 11 11 12 12 11 11 11 10 10 10 10 10 10 10 10 10 9 9 8 8 7 6 6
15 14 14 14 13 13 13 13 12 12 12 11 11 11 11 11 11 11 11 11 11 11 11 12 11 11 10 10 10 10 9 9 9 9 9 9 9 8 8 7 6 6 5
15 15 14 14 13 13 13 12 12 12 12 11 11 11 10 10 11 11 11 11 11 11 11 11 11 11 10 10 10 10 9 9 9 9 9 9 8 8 7 7 6 5 5
15 14 14 13 13 13 12 12 12 12 12 11 11 11 11 12 11 11 11 11 11 11 11 10 10 10 10 10 10 10 9 9 8 8 8 8 8 7 7 6 5 5 4
14 14 13 13 12 12 12 12 12 12 11 11 11 11 11 12 11 11 11 11 10 10 10 10 10 10 9 9 10 10 9 8 8 8 7 7 7 7 6 6 5 4 4
13 13 13 13 12 12 12 12 12 11 11 11 11 11 10 10 11 11 11 11 10 10 10 9 9 9 9 9 9 9 9 8 7 7 7 7 6 6 6 5 5 5 4
13 13 13 12 12 12 12 12 11 11 11 11 11 10 10 10 10 10 10 11 11 10 9 8 8 8 8 8 8 8 8 7 7 6 6 6 6 5 5 5 5 4 4
12 12 12 12 12 12 12 11 11 11 11 11 10 10 10 10 10 10 10 10 9 9 8 7 7 7 7 7 7 7 7 6 6 6 5 5 5 5 5 5 4 4 3
11 12 12 12 12 12 11 11 11 11 11 10 10 10 9 9 9 9 9 8 8 7 7 7 6 5 5 5 5 5 5 5 5 5 5 5 4 4 4 4 4 3 3
10 10 11 11 11 11 11 11 11 10 10 10 10 10 9 9 9 8 8 8 7 6 6 5 5 5 5 4 4 4 4 4 4 4 4 4 4 4 3 3 3 2 2
9 9 10 10 10 10 10 10 10 10 10 10 9 9 9 9 8 8 8 7 6 6 5 5 5 5 4 4 4 4 3 3 3 3 3 3 3 2 2 2 2 1 1
8 9 9 9 9 10 10 10 9 9 9 9 8 8 8 8 8 8 7 7 6 5 4 4 4 3 3 3 3 3 2 3 3 2 2 2 1 1 1 1 0 0 -0
8 8 8 8 8 9 9 9 9 8 8 8 8 8 7 7 7 7 6 6 5 4 3 3 3 3 2 2 2 2 1 1 1 1 1 0 0 -0 -0 -0 -1 -1 -1
7 7 7 7 7 8 7 7 7 7 7 7 7 7 7 6 6 5 5 4 3 2 2 2 3 2 2 1 1 1 0 0 -0 -0 -0 -1 -1 -1 -2 -2 -2 -2 -2
6 6 6 6 6 6 6 6 6 6 6 6 6 5 5 4 4 3 2 2 2 2 2 2 2 1 1 0 -0 -0 -1 -1 -1 -1 -2 -2 -2 -3 -3 -3 -3 -3 -3
5 5 5 5 5 5 5 5 5 5 5 4 4 3 3 2 2 1 1 1 1 1 1 1 1 0 -0 -1 -1 -2 -2 -3 -3 -3 -3 -3 -3 -3 -3 -3 -3 -3 -3
3 4 4 4 4 4 3 3 3 3 3 2 2 1 1 0 0 0 0 0 0 0 -0 -1 -1 -1 -2 -3 -3 -4 -5 -5 -4 -4 -5 -4 -4 -4 -3 -3 -3 -3 -3
2 2 2 2 1 1 1 1 1 1 1 1 0 0 -0 -0 -0 -0 -1 -1 -1 -1 -2 -2 -3 -3 -4 -5 -5 -6 -6 -6 -5 -5 -6 -4 -4 -4 -3 -3 -3 -3 -3
1 1 0 0 0 0 0 0 0 -0 -0 -0 -0 -0 -1 -1 -1 -1 -1 -2 -2 -3 -3 -4 -4 -4 -5 -6 -6 -6 -6 -6 -6 -5 -7 -6 -4 -4 -3 -3 -3 -3 -3
0 -0 -0 -0 -0 -0 -0 -1 -1 -1 -1 -1 -1 -2 -2 -2 -2 -3 -3 -3 -4 -4 -5 -5 -6 -6 -6 -6 -7 -7 -7 -7 -6 -5 -6 -6 -5 -5 -3 -2 -2 -3 -3
-0 -0 -0 -0 -1 -1 -1 -1 -1 -2 -2 -2 -2 -3 -3 -3 -4 -4 -4 -5 -5 -6 -6 -7 -7 -7 -7 -7 -7 -7 -7 -7 -7 -7 -6 -7 -6 -6 -6 -3 -2 -3 -3
Wind_Speed
5 7 8 12 14 14 12 11 10 9 8 9 8 6 7 6 10 14 14 14 13 12 11 10 9 9 9 9 9 9 9 9 9 10 10 10 11 11 11 12 12 12 13
9 6 6 8 11 13 14 12 10 6 6 6 5 6 6 6 9 16 16 15 14 13 12 11 10 10 9 9 9 8 8 8 8 8 8 8 9 9 9 10 11 11 11
11 9 5 5 9 12 12 11 10 7 5 5 5 6 6 7 7 14 18 16 14 13 13 12 11 10 9 9 8 8 7 6 6 6 6 6 6 7 7 8 8 9 9
14 10 5 5 10 12 9 5 5 5 5 5 5 4 4 5 7 11 16 18 17 14 13 13 13 12 10 9 8 7 6 5 4 4 4 4 4 4 5 5 6 7 7
17 11 6 7 11 7 5 6 5 5 5 6 5 5 5 4 5 7 10 15 18 18 16 14 13 13 12 10 9 7 6 5 4 3 2 1 1 2 3 4 5 6 7
15 13 7 9 10 6 7 6 6 6 5 6 5 4 4 5 4 5 6 11 15 18 19 17 15 14 13 12 10 8 6 5 4 3 2 1 1 2 3 5 5 6 7
13 10 6 8 8 9 9 9 7 7 6 5 4 2 2 3 5 6 6 6 10 15 19 20 18 16 15 14 12 9 8 6 5 3 2 2 3 4 5 6 7 8 9
15 11 9 8 9 8 10 11 8 7 6 7 5 4 3 4 6 7 6 7 8 12 13 18 20 19 18 16 14 12 9 7 5 4 3 3 4 5 6 8 9 10 10
15 14 10 9 9 9 10 11 11 11 9 8 6 6 5 7 5 5 8 8 8 7 8 14 17 19 19 18 17 14 11 8 6 5 4 3 4 5 7 9 10 11 12
13 16 13 11 11 9 10 11 12 10 9 8 7 6 5 5 5 4 4 6 8 8 9 9 13 16 18 17 17 16 13 10 8 6 4 4 5 7 9 11 12 13 14
10 12 13 13 13 12 11 11 11 11 10 9 8 5 6 3 3 4 4 5 6 7 8 8 10 13 17 17 17 17 15 12 9 7 5 5 7 9 10 12 13 14 15
6 9 11 13 14 13 13 12 11 12 12 11 9 7 6 5 6 4 4 3 5 5 5 5 7 11 15 17 17 18 15 12 10 7 6 7 8 10 12 13 14 15 16
5 7 8 11 11 13 13 12 12 12 12 11 11 9 8 7 4 4 4 3 3 1 2 2 3 9 13 15 16 18 15 12 9 8 8 8 10 11 13 14 15 16 17
6 6 6 8 10 11 12 12 11 11 10 12 12 10 8 8 6 5 5 5 4 1 1 2 2 5 9 11 14 15 12 11 10 9 9 10 12 13 14 15 16 17 18
6 6 6 6 7 8 9 9 9 10 9 10 10 10 7 6 6 5 4 5 7 6 6 3 2 3 7 9 12 10 8 9 9 11 12 13 14 15 16 17 17 18 19
7 7 6 5 4 4 4 5 5 5 6 6 5 7 6 3 4 3 4 4 4 6 5 3 2 2 5 7 10 7 6 9 12 13 14 15 16 17 18 18 19 19 20
7 7 6 4 4 2 1 1 1 2 3 2 2 3 3 3 4 3 3 3 3 4 5 3 2 2 4 5 5 5 6 8 10 13 16 17 18 18 19 20 20 20 21
8 8 8 7 7 6 4 3 3 3 3 3 3 4 4 5 6 5 4 4 4 3 4 5 3 3 4 4 4 4 6 8 9 13 16 18 18 19 20 20 21 21 21
9 10 10 10 9 9 8 7 6 6 6 5 5 5 6 7 6 6 6 5 4 4 3 5 4 2 2 3 4 4 6 7 10 12 15 16 17 18 19 20 20 21 21
10 10 10 10 10 9 9 9 9 9 9 9 8 7 6 6 7 7 6 6 5 5 5 5 3 2 2 3 3 4 4 4 5 8 11 14 17 18 18 19 19 20 20
11 10 10 10 10 9 9 9 9 9 10 10 9 8 7 8 9 6 5 5 5 4 4 3 2 2 3 3 4 3 4 3 4 4 4 7 10 10 14 18 20 21 21
10 10 11 10 10 9 14 14 11 9 9 10 9 9 8 8 8 9 8 7 5 4 3 2 2 3 3 3 2 2 1 1 3 2 2 6 6 7 11 15 19 21 21
10 10 10 10 11 13 17 17 17 11 10 9 8 7 7 8 9 6 6 5 3 1 2 2 2 2 1 1 1 0 2 3 5 4 5 8 6 9 11 17 21 22 22
9 9 10 11 11 13 17 17 17 11 10 9 8 7 6 5 4 4 2 2 1 1 1 1 1 1 1 1 2 3 4 4 5 5 4 6 6 7 9 13 20 22 22
9 8 8 9 9 10 14 14 12 6 7 6 5 5 4 2 3 3 2 1 2 3 4 3 5 6 9 10 8 3 3 4 5 5 3 4 4 5 6 8 13 16 16
7 7 7 6 6 6 11 11 9 4 4 3 2 1 3 3 4 4 3 2 2 2 4 5 5 7 7 8 10 5 5 4 4 4 2 2 3 4 5 4 4 8 13
Wind_Direction
181 188 186 181 188 191 192 187 208 200 187 186 198 187 179 190 140 135 140 145 148 149 149 148 144 139 131 122 113 105 99 93 87 81 76 71 65 61 59 57 53 50 46
187 196 201 191 193 192 187 190 206 194 181 178 183 192 195 185 155 144 147 150 156 159 161 162 158 153 146 138 128 118 109 101 93 85 79 72 65 59 57 54 50 46 43
197 196 205 198 197 199 190 188 202 194 175 169 182 193 194 192 174 152 155 158 160 166 170 171 168 164 158 151 142 133 123 113 104 94 84 74 64 55 51 46 42 39 35
210 201 200 209 199 198 194 185 193 180 171 169 182 195 185 184 186 169 163 164 166 170 176 177 175 173 168 163 155 146 139 134 127 115 99 83 62 45 36 30 26 22 19
214 209 201 205 202 197 194 192 189 177 175 181 191 187 184 178 196 186 169 169 172 172 174 176 176 176 175 173 168 163 158 156 157 154 139 112 55 17 4 1 359 356 355
220 214 208 205 199 194 199 194 188 187 182 180 185 179 192 187 193 191 186 178 173 172 173 172 172 176 180 181 179 177 175 174 177 182 191 226 288 317 324 327 328 329 330
234 224 214 207 202 203 202 194 184 192 192 160 139 171 257 227 209 200 194 182 178 178 174 176 179 181 185 188 187 186 187 187 190 197 215 255 286 301 306 309 312 314 315
230 233 228 222 212 208 205 201 192 187 187 167 151 142 208 249 251 219 199 196 187 184 183 182 184 183 185 188 187 188 189 192 198 209 225 253 278 293 301 305 306 306 307
223 226 230 230 225 216 214 209 202 193 196 192 179 166 175 207 212 225 215 202 191 186 188 187 188 186 183 182 183 185 184 188 195 209 227 255 280 293 298 301 301 301 302
215 217 221 225 229 226 222 217 211 204 188 196 212 223 209 161 164 201 233 213 198 193 190 193 191 187 183 174 175 177 178 183 192 203 219 249 276 289 294 298 299 300 300
219 214 214 218 224 228 227 223 217 211 205 199 198 204 227 236 185 156 199 211 211 209 194 187 184 182 179 171 166 171 176 183 192 202 222 253 276 286 292 296 297 298 297
243 225 216 216 220 223 225 224 222 217 213 208 204 199 192 199 208 190 177 182 204 215 197 181 178 176 175 171 170 173 178 186 195 210 236 262 280 289 294 295 295 294 292
271 252 230 223 222 222 223 221 221 221 216 211 211 210 209 213 192 197 191 163 160 173 169 173 165 164 167 164 166 171 179 190 204 224 249 272 288 293 294 292 291 291 290
279 279 263 242 229 224 223 220 222 223 218 217 217 211 210 212 205 198 190 166 155 163 180 176 111 137 144 149 163 169 181 200 219 240 260 279 288 290 289 288 288 288 287
299 294 289 276 249 231 226 220 223 222 217 218 218 214 211 204 196 189 178 178 177 186 203 180 152 120 133 138 164 173 187 213 238 255 265 277 283 284 285 285 285 285 284
327 320 309 304 290 254 234 224 225 224 218 220 216 209 206 180 169 170 170 166 170 178 182 169 158 133 139 157 174 183 209 236 250 261 271 277 280 281 282 283 283 282 281
346 346 341 343 341 336 340 187 210 190 197 199 170 181 171 140 138 131 134 145 150 151 159 142 125 140 162 170 183 209 235 246 256 265 273 277 280 282 282 282 282 281 280
8 9 13 21 25 28 35 59 77 89 112 125 116 117 120 117 115 115 119 121 128 125 142 149 150 162 182 187 192 221 243 251 256 266 272 277 280 282 283 282 281 280 279
22 25 30 34 35 37 39 42 58 70 76 86 99 116 123 125 121 118 117 118 116 104 100 136 143 149 171 188 197 225 240 251 258 266 275 282 285 286 285 283 282 280 279
32 34 37 40 42 45 49 53 61 68 71 70 75 87 101 119 125 122 119 121 117 105 103 116 121 149 175 177 189 219 241 237 252 267 278 284 286 289 289 289 288 286 283
40 41 44 44 44 49 55 63 67 74 78 77 72 75 85 102 116 114 121 119 115 113 120 122 145 167 183 188 203 207 228 247 266 264 270 278 286 286 286 287 288 286 283
43 47 50 50 52 59 68 74 77 73 76 78 76 69 71 72 87 94 109 117 124 132 140 152 175 190 200 206 196 190 198 291 292 289 303 288 283 280 279 277 281 284 284
50 53 54 57 61 65 71 75 77 73 70 68 69 67 64 59 59 55 69 74 68 94 176 175 190 214 228 185 141 194 248 248 252 263 291 286 272 275 276 280 286 290 291
56 56 56 58 62 65 70 74 77 72 70 66 63 62 64 56 55 52 50 53 0 298 258 224 198 252 270 229 198 215 235 260 265 264 261 276 279 275 283 281 287 291 293
65 61 60 59 61 61 67 71 74 72 73 69 66 62 59 51 43 30 23 333 297 290 274 260 265 275 279 279 270 253 259 278 288 283 250 257 283 296 287 281 287 295 298
76 74 70 64 62 58 61 62 64 67 72 72 71 71 58 36 11 5 7 350 334 351 8 351 320 301 288 280 277 245 207 223 255 285 276 284 297 332 310 284 274 289 293
Height
1550 1551 1551 1552 1553 1554 1556 1557 1559 1559 1560 1561 1561 1562 1562 1563 1563 1561 1562 1563 1563 1563 1563 1563 1563 1563 1563 1563 1563 1563 1563 1563 1563 1562 1562 1562 1562 1561 1561 1561 1561 1560 1560
1547 1549 1550 1551 1551 1552 1553 1554 1556 1557 1558 1558 1559 1559 1560 1560 1560 1559 1559 1560 1560 1561 1561 1561 1562 1562 1562 1562 1562 1562 1562 1562 1562 1562 1562 1561 1561 1561 1560 1560 1560 1559 1559
1545 1545 1547 1548 1549 1550 1551 1552 1553 1554 1555 1555 1556 1556 1557 1558 1558 1557 1556 1556 1557 1558 1558 1559 1559 1560 1560 1560 1561 1561 1561 1561 1561 1561 1561 1560 1560 1560 1559 1559 1559 1558 1558
1542 1542 1543 1544 1546 1547 1548 1548 1549 1550 1550 1551 1552 1553 1553 1554 1555 1554 1553 1552 1553 1554 1555 1556 1557 1557 1558 1558 1559 1559 1559 1559 1559 1559 1559 1559 1558 1558 1558 1557 1557 1557 1556
1537 1538 1539 1540 1542 1543 1543 1544 1545 1546 1546 1547 1548 1549 1549 1550 1551 1551 1550 1550 1549 1550 1551 1552 1553 1554 1555 1555 1556 1556 1557 1557 1557 1557 1557 1556 1556 1556 1556 1555 1555 1555 1555
1532 1533 1534 1535 1536 1537 1538 1539 1540 1541 1542 1543 1544 1545 1545 1545 1546 1546 1546 1546 1546 1546 1547 1548 1549 1550 1551 1552 1553 1553 1553 1554 1554 1554 1554 1554 1553 1553 1553 1553 1553 1552 1552
1526 1527 1528 1529 1530 1530 1531 1533 1534 1535 1536 1538 1539 1539 1540 1540 1540 1540 1541 1541 1541 1541 1542 1543 1544 1546 1547 1548 1549 1549 1550 1550 1551 1551 1551 1551 1550 1550 1550 1550 1550 1549 1549
1519 1520 1522 1523 1524 1524 1525 1526 1527 1528 1529 1531 1531 1533 1534 1535 1532 1533 1534 1535 1535 1536 1537 1537 1539 1540 1542 1543 1544 1545 1546 1547 1547 1547 1547 1547 1547 1547 1547 1546 1546 1546 1545
1512 1513 1514 1516 1517 1518 1519 1519 1520 1521 1521 1522 1523 1525 1525 1523 1524 1525 1526 1527 1528 1529 1530 1532 1533 1534 1535 1537 1539 1540 1541 1542 1542 1543 1543 1543 1543 1542 1542 1542 1542 1541 1541
1506 1506 1507 1508 1510 1511 1512 1512 1513 1514 1514 1514 1515 1516 1518 1518 1518 1517 1518 1519 1521 1522 1523 1525 1526 1528 1529 1530 1532 1534 1536 1537 1537 1537 1538 1538 1538 1537 1537 1537 1536 1536 1535
1500 1500 1500 1501 1502 1503 1504 1505 1506 1506 1506 1506 1506 1508 1510 1512 1512 1512 1511 1512 1513 1514 1516 1518 1519 1521 1523 1524 1525 1528 1530 1531 1532 1532 1532 1532 1532 1532 1531 1531 1530 1529 1529
1494 1494 1494 1494 1494 1495 1496 1497 1498 1499 1499 1499 1500 1500 1502 1504 1504 1505 1505 1505 1506 1508 1510 1511 1513 1514 1515 1517 1518 1521 1523 1525 1525 1526 1526 1526 1526 1525 1525 1524 1523 1522 1521
1487 1487 1488 1487 1487 1487 1488 1489 1490 1490 1491 1491 1492 1492 1494 1496 1498 1500 1501 1500 1501 1501 1503 1505 1506 1507 1509 1510 1511 1514 1516 1518 1519 1519 1520 1519 1519 1518 1517 1516 1515 1514 1513
1480 1480 1480 1480 1479 1480 1480 1481 1481 1482 1483 1484 1484 1485 1486 1487 1490 1491 1493 1495 1494 1494 1494 1495 1497 1499 1501 1503 1505 1507 1509 1511 1512 1513 1513 1512 1511 1511 1510 1508 1507 1506 1505
1473 1473 1472 1472 1472 1472 1473 1473 1473 1474 1475 1476 1477 1478 1479 1480 1481 1483 1484 1486 1488 1487 1487 1488 1489 1491 1493 1496 1498 1500 1502 1503 1505 1506 1505 1504 1503 1503 1501 1500 1499 1498 1497
1467 1466 1466 1465 1465 1465 1466 1466 1467 1467 1468 1469 1470 1471 1472 1473 1474 1475 1476 1477 1478 1479 1480 1481 1482 1484 1487 1489 1491 1494 1495 1496 1497 1498 1497 1496 1495 1494 1493 1492 1491 1489 1488
1462 1461 1460 1460 1460 1460 1460 1460 1461 1461 1462 1462 1463 1464 1465 1466 1466 1467 1468 1469 1470 1472 1473 1474 1477 1479 1481 1483 1485 1487 1488 1489 1489 1489 1489 1488 1486 1486 1485 1484 1482 1481 1480
1458 1457 1456 1455 1455 1455 1455 1455 1455 1455 1456 1457 1457 1458 1459 1459 1459 1460 1461 1462 1463 1465 1468 1469 1471 1474 1476 1478 1479 1480 1481 1481 1482 1482 1481 1479 1478 1477 1476 1475 1474 1473 1472
1455 1454 1453 1452 1452 1451 1451 1451 1451 1451 1451 1452 1452 1453 1453 1454 1454 1454 1455 1457 1458 1460 1463 1465 1467 1469 1471 1473 1473 1474 1474 1474 1474 1474 1473 1472 1471 1469 1469 1468 1467 1466 1465
1454 1452 1451 1450 1450 1449 1449 1448 1448 1447 1447 1447 1448 1448 1449 1449 1450 1451 1452 1455 1456 1458 1460 1462 1463 1464 1466 1466 1467 1468 1467 1468 1468 1467 1466 1464 1463 1463 1462 1461 1460 1459 1458
1452 1451 1450 1449 1449 1448 1447 1446 1445 1445 1444 1444 1445 1445 1446 1447 1448 1450 1452 1454 1455 1456 1457 1458 1459 1460 1461 1461 1461 1461 1461 1461 1461 1460 1459 1458 1457 1456 1455 1454 1453 1452 1451
1452 1451 1450 1449 1448 1446 1446 1445 1444 1444 1444 1444 1445 1446 1447 1448 1449 1450 1452 1452 1453 1454 1454 1455 1455 1456 1456 1456 1456 1456 1456 1456 1455 1455 1453 1452 1451 1449 1449 1447 1446 1445 1444
1453 1452 1450 1449 1448 1447 1447 1446 1445 1445 1445 1446 1446 1448 1449 1449 1450 1450 1450 1451 1451 1451 1451 1452 1452 1452 1452 1452 1452 1452 1452 1451 1450 1449 1447 1444 1445 1443 1442 1441 1440 1439 1437
1455 1454 1453 1452 1451 1450 1449 1449 1448 1448 1448 1448 1448 1449 1449 1449 1449 1449 1449 1448 1448 1448 1448 1448 1448 1448 1448 1448 1447 1447 1447 1446 1445 1444 1443 1439 1438 1437 1435 1435 1434 1432 1431
1457 1456 1455 1455 1453 1452 1452 1451 1450 1450 1449 1449 1449 1449 1449 1448 1448 1447 1447 1446 1446 1445 1445 1444 1444 1444 1444 1443 1443 1443 1442 1442 1440 1439 1439 1436 1433 1430 1428 1428 1428 1426 1425
1459 1459 1458 1457 1456 1455 1454 1453 1452 1451 1450 1449 1449 1448 1448 1447 1446 1445 1444 1444 1443 1442 1442 1441 1441 1440 1440 1440 1440 1440 1439 1438 1437 1435 1433 1433 1430 1427 1422 1420 1420 1419 1417